Calumet, MI

1:04 AM EST on February 25, 2017 (GMT -0500)
Houghton County Memorial

Weather History for KCMX - December, 2012

Change the Weather History Date:

Thursday, December 13, 2012

  Actual Average Record
Temperature  
Mean Temperature 30 °F -  
Max Temperature 37 °F 26 °F 42 °F (1954)
Min Temperature 24 °F 16 °F -4 °F (2000)
Degree Days  
Heating Degree Days 34    
Moisture  
Dew Point 28 °F    
Average Humidity 88    
Maximum Humidity 100    
Minimum Humidity 60    
Precipitation  
Precipitation 0.05 in - - ()
Sea Level Pressure  
Sea Level Pressure 29.99 in    
Wind  
Wind Speed 7 mph (WNW)    
Max Wind Speed 20 mph    
Max Gust Speed 25 mph    
Visibility 6 miles    
Events Fog , Snow    
Averages and records for this station are not official NWS values.
T = Trace of Precipitation, MM = Missing Value Source: NWS Daily Summary

Daily Weather History Graph

Daily Weather History Graph

Search for Another Location

Airport or City:

Trip Planner

Search our weather history database for the weather conditions in past years. The results will help you decide how hot, cold, wet, or windy it might be!

Date:

Astronomy

Dec. 13, 2012 Rise Set
Actual Time 8:32 AM EST 5:04 PM EST
Civil Twilight 7:56 AM EST 5:39 PM EST
Nautical Twilight 7:18 AM EST 6:18 PM EST
Astronomical Twilight 6:40 AM EST 6:55 PM EST
Moon 8:39 AM EST (12/13) 5:48 PM EST (12/13)
Length of Visible Light 9h 42m
Length of Day
8h 31m
New Moon, 0% of the Moon is Illuminated
Dec 13
New Moon
Dec 20
First Quarter
Dec 28
Full
Jan 4
Last Quarter
Jan 11
New

Hourly Weather History & Observations

Time (EST) Temp. Windchill Dew Point Humidity Pressure Visibility Wind Dir Wind Speed Gust Speed Precip Events Conditions
12:53 AM 30.9 °F 26.2 °F 24.1 °F 76% 29.96 in 10.0 mi SSW 4.6 mph - N/A   Overcast
1:53 AM 33.1 °F 30.0 °F 24.1 °F 70% 29.94 in 10.0 mi SW 3.5 mph - N/A   Overcast
2:53 AM 37.9 °F 27.9 °F 25.0 °F 60% 29.95 in 10.0 mi WSW 19.6 mph 25.3 mph N/A   Overcast
3:53 AM 35.1 °F 27.4 °F 30.9 °F 85% 29.96 in 9.0 mi WSW 10.4 mph - 0.00 in Snow Light Snow
4:53 AM 34.0 °F 28.8 °F 30.9 °F 89% 29.95 in 10.0 mi WSW 5.8 mph - 0.00 in   Overcast
5:53 AM 35.1 °F 31.0 °F 30.9 °F 85% 29.95 in 10.0 mi SW 4.6 mph - N/A   Overcast
6:53 AM 35.1 °F 31.0 °F 28.9 °F 78% 29.95 in 10.0 mi SW 4.6 mph - N/A   Overcast
7:53 AM 34.0 °F 28.8 °F 27.0 °F 75% 29.96 in 10.0 mi West 5.8 mph - N/A   Overcast
8:53 AM 34.0 °F 31.0 °F 28.0 °F 79% 29.96 in 10.0 mi WSW 3.5 mph - N/A   Overcast
9:53 AM 34.0 °F 31.0 °F 30.0 °F 85% 29.97 in 10.0 mi WSW 3.5 mph - N/A   Overcast
10:27 AM 33.8 °F 28.6 °F 30.2 °F 87% 29.95 in 1.8 mi SW 5.8 mph - 0.00 in Snow Light Snow
10:31 AM 33.8 °F 28.6 °F 30.2 °F 87% 29.95 in 0.8 mi WSW 5.8 mph - 0.01 in Snow Light Snow
10:39 AM 33.8 °F 27.0 °F 30.2 °F 87% 29.95 in 0.8 mi WSW 8.1 mph - 0.01 in Snow Light Snow
10:48 AM 33.8 °F 25.3 °F 30.2 °F 87% 29.95 in 0.8 mi West 11.5 mph - 0.02 in Snow Light Snow
10:53 AM 33.1 °F 23.4 °F 30.9 °F 92% 29.99 in 0.8 mi West 13.8 mph - 0.02 in Snow Light Snow
11:15 AM 32.0 °F 22.5 °F 30.2 °F 93% 29.95 in 0.5 mi West 12.7 mph - 0.00 in Fog , Snow Snow
11:29 AM 32.0 °F 23.0 °F 30.2 °F 93% 29.94 in 0.5 mi West 11.5 mph - 0.01 in Fog , Snow Snow
11:53 AM 32.0 °F 23.6 °F 30.9 °F 96% 29.98 in 0.8 mi West 10.4 mph - 0.02 in Snow Light Snow
12:06 PM 32.0 °F 24.2 °F 30.2 °F 93% 29.94 in 1.0 mi West 9.2 mph - 0.00 in Snow Light Snow
12:28 PM 32.0 °F 26.4 °F 32.0 °F 100% 29.94 in 2.0 mi West 5.8 mph - 0.00 in Snow Light Snow
12:35 PM 32.0 °F 25.6 °F 32.0 °F 100% 29.94 in 1.5 mi WNW 6.9 mph - 0.00 in Snow Light Snow
12:50 PM 33.8 °F 28.6 °F 30.2 °F 87% 29.94 in 3.0 mi NNW 5.8 mph - 0.00 in Snow Light Snow
12:51 PM 33.1 °F 26.9 °F 30.9 °F 92% 29.98 in 3.0 mi NNW 6.9 mph - 0.00 in Snow Light Snow
1:07 PM 32.0 °F 26.4 °F 30.2 °F 93% 29.94 in 6.0 mi NNW 5.8 mph - 0.00 in Snow Light Snow
1:50 PM 32.0 °F 27.5 °F 28.4 °F 87% 29.95 in 7.0 mi North 4.6 mph - 0.01 in   Overcast
1:53 PM 32.0 °F 26.4 °F 28.9 °F 88% 29.99 in 7.0 mi North 5.8 mph - 0.01 in   Overcast
2:53 PM 30.0 °F 25.2 °F 28.0 °F 92% 30.00 in 3.0 mi North 4.6 mph - 0.00 in Snow Light Snow
3:53 PM 28.9 °F 21.1 °F 26.1 °F 89% 30.01 in 8.0 mi North 8.1 mph - 0.00 in   Overcast
4:53 PM 27.0 °F 18.7 °F 25.0 °F 92% 30.03 in 2.0 mi NNE 8.1 mph - 0.00 in Snow Light Snow
5:23 PM 26.6 °F 16.2 °F 24.8 °F 93% 30.00 in 5.0 mi North 11.5 mph - 0.00 in Snow Light Snow
6:20 PM 26.6 °F 18.2 °F 23.0 °F 86% 30.02 in 2.5 mi North 8.1 mph - 0.00 in Snow Light Snow
6:36 PM 26.6 °F 18.2 °F 23.0 °F 86% 30.03 in 4.0 mi North 8.1 mph - 0.00 in Snow Light Snow
6:53 PM 26.6 °F 18.2 °F 23.0 °F 86% 30.04 in 10.0 mi North 8.1 mph - N/A   Overcast
7:07 PM 24.8 °F 16.1 °F 23.0 °F 93% 30.04 in 9.0 mi North 8.1 mph - N/A   Overcast
7:53 PM 25.0 °F 15.5 °F 23.0 °F 92% 30.10 in 4.0 mi NNW 9.2 mph - N/A   Overcast
8:53 PM 25.0 °F 17.1 °F 23.0 °F 92% 30.10 in 5.0 mi North 6.9 mph - N/A   Overcast
9:53 PM 24.1 °F 17.0 °F 21.9 °F 91% 30.12 in 9.0 mi NNW 5.8 mph - N/A   Overcast
10:53 PM 24.1 °F 19.7 °F 21.9 °F 91% 30.13 in 10.0 mi North 3.5 mph - N/A   Overcast
11:53 PM 24.1 °F - 21.9 °F 91% 30.14 in 10.0 mi Calm Calm - N/A   Overcast